Lancaster, OH

7:53 PM EDT on October 21, 2017 (GMT -0400)
Fairfield County

Weather History for KLHQ - September, 2013

Change the Weather History Date:

Wednesday, September 11, 2013

  Actual Average Record
Temperature  
Mean Temperature 78 °F -  
Max Temperature 87 °F 79 °F 97 °F (1964)
Min Temperature 69 °F 52 °F 39 °F (1969)
Cooling Degree Days 13    
Growing Degree Days 28 (Base 50)    
Moisture  
Dew Point 70 °F    
Average Humidity 83    
Maximum Humidity 94    
Minimum Humidity 62    
Precipitation  
Precipitation 0.37 in - - ()
Sea Level Pressure  
Sea Level Pressure 30.11 in    
Wind  
Wind Speed 3 mph (SSW)    
Max Wind Speed 17 mph    
Max Gust Speed 24 mph    
Visibility 6 miles    
Events Rain , Thunderstorm    
Averages and records for this station are not official NWS values.
T = Trace of Precipitation, MM = Missing Value Source: NWS Daily Summary

Daily Weather History Graph

Daily Weather History Graph

Search for Another Location

Airport or City:

Trip Planner

Search our weather history database for the weather conditions in past years. The results will help you decide how hot, cold, wet, or windy it might be!

Date:

Astronomy

Sep. 11, 2013 Rise Set
Actual Time 7:08 AM EDT 7:45 PM EDT
Civil Twilight 6:40 AM EDT 8:12 PM EDT
Nautical Twilight 6:08 AM EDT 8:44 PM EDT
Astronomical Twilight 5:35 AM EDT 9:17 PM EDT
Moon 1:34 PM EDT (9/11) 11:41 PM EDT (9/11)
Length of Visible Light 13h 31m
Length of Day
12h 37m
Waxing Crescent, 38% of the Moon is Illuminated
Sep 11
Waxing Crescent
Sep 12
First Quarter
Sep 19
Full
Sep 26
Last Quarter
Oct 4
New

Hourly Weather History & Observations

Time (EDT) Temp. Heat Index Dew Point Humidity Pressure Visibility Wind Dir Wind Speed Gust Speed Precip Events Conditions
12:53 AM 73.9 °F - 71.1 °F 91% 30.12 in 7.0 mi Calm Calm - N/A   Clear
1:53 AM 75.9 °F - 71.1 °F 85% 30.12 in 8.0 mi South 3.5 mph - N/A   Clear
2:53 AM 71.1 °F - 69.1 °F 93% 30.11 in 7.0 mi Calm Calm - N/A   Clear
3:53 AM 72.0 °F - 69.1 °F 91% 30.11 in 7.0 mi SSE 3.5 mph - N/A   Clear
4:53 AM 72.0 °F - 69.1 °F 91% 30.12 in 7.0 mi South 3.5 mph - N/A   Clear
5:53 AM 72.0 °F - 69.1 °F 91% 30.13 in 6.0 mi Calm Calm - N/A   Clear
6:53 AM 71.1 °F - 69.1 °F 93% 30.14 in 5.0 mi Calm Calm - N/A   Clear
7:29 AM 69.8 °F - 68.0 °F 94% 30.17 in 2.5 mi Calm Calm - N/A   Clear
7:38 AM 69.8 °F - 68.0 °F 94% 30.17 in 3.0 mi Calm Calm - N/A   Clear
7:53 AM 71.1 °F - 69.1 °F 93% 30.15 in 3.0 mi Calm Calm - N/A   Clear
8:53 AM 77.0 °F - 70.0 °F 79% 30.16 in 5.0 mi SW 3.5 mph - N/A   Haze
9:53 AM 79.0 °F - 71.1 °F 77% 30.16 in 7.0 mi WSW 8.1 mph - N/A   Clear
10:53 AM 82.0 °F 87.4 °F 73.0 °F 74% 30.15 in 7.0 mi Variable 5.8 mph - N/A   Clear
11:53 AM 82.9 °F 88.8 °F 73.0 °F 72% 30.14 in 7.0 mi SW 5.8 mph - N/A   Scattered Clouds
12:53 PM 87.1 °F 94.5 °F 73.0 °F 63% 30.11 in 8.0 mi WSW 8.1 mph - N/A   Scattered Clouds
1:03 PM 87.8 °F 95.6 °F 73.4 °F 62% 30.13 in 8.0 mi Calm Calm - N/A Thunderstorm Thunderstorm
1:40 PM 71.6 °F - 66.2 °F 83% 30.18 in 2.0 mi West 17.3 mph 24.2 mph 0.06 in Rain , Thunderstorm Thunderstorms and Rain
1:45 PM 71.6 °F - 66.2 °F 83% 30.17 in 1.5 mi WSW 13.8 mph 23.0 mph 0.17 in Rain , Thunderstorm Heavy Thunderstorms and Rain
1:49 PM 71.6 °F - 66.2 °F 83% 30.16 in 0.8 mi WSW 10.4 mph 23.0 mph 0.24 in Rain , Thunderstorm Heavy Thunderstorms and Rain
1:53 PM 70.0 °F - 66.9 °F 90% 30.13 in 0.8 mi WSW 10.4 mph - 0.31 in Rain , Thunderstorm Heavy Thunderstorms and Rain
2:01 PM 69.8 °F - 66.2 °F 88% 30.14 in 1.2 mi SW 5.8 mph - 0.04 in Rain , Thunderstorm Thunderstorms and Rain
2:05 PM 69.8 °F - 66.2 °F 88% 30.13 in 2.5 mi SW 3.5 mph - 0.05 in Rain , Thunderstorm Thunderstorms and Rain
2:13 PM 69.8 °F - 66.2 °F 88% 30.12 in 3.0 mi Calm Calm - 0.06 in Rain , Thunderstorm Thunderstorms and Rain
2:40 PM 71.6 °F - 69.8 °F 94% 30.11 in 10.0 mi Calm Calm - 0.06 in   Scattered Clouds
2:53 PM 73.9 °F - 69.1 °F 85% 30.09 in 10.0 mi ESE 4.6 mph - 0.06 in   Partly Cloudy
3:53 PM 82.0 °F 86.7 °F 72.0 °F 71% 30.05 in 10.0 mi SSE 5.8 mph - N/A   Clear
4:53 PM 86.0 °F 92.2 °F 72.0 °F 63% 30.05 in 10.0 mi SSW 5.8 mph - N/A   Clear
5:53 PM 84.9 °F 90.7 °F 72.0 °F 65% 30.03 in 9.0 mi SSE 4.6 mph - N/A   Clear
6:53 PM 82.9 °F 88.0 °F 72.0 °F 69% 30.01 in 8.0 mi South 3.5 mph - N/A   Clear
7:53 PM 80.1 °F 83.6 °F 71.1 °F 74% 30.03 in 7.0 mi South 3.5 mph - N/A   Clear
8:53 PM 77.0 °F - 72.0 °F 84% 30.04 in 8.0 mi SE 4.6 mph - N/A   Clear
9:53 PM 75.9 °F - 71.1 °F 85% 30.03 in 8.0 mi SSE 5.8 mph - N/A   Clear
10:53 PM 75.0 °F - 70.0 °F 84% 30.03 in 8.0 mi SSE 4.6 mph - N/A   Clear
11:53 PM 73.9 °F - 71.1 °F 91% 30.01 in 7.0 mi SSE 5.8 mph - N/A   Clear